Augusta Bush, GA

11:54 AM EST on November 22, 2017 (GMT -0500)
Augusta Regional At Bush

Weather History for KAGS - January, 2012

Change the Weather History Date:

Thursday, January 12, 2012

  Actual Average Record
Temperature  
Mean Temperature 55 °F 45 °F  
Max Temperature 67 °F 57 °F 81 °F (2013)
Min Temperature 42 °F 33 °F 6 °F (1886)
Degree Days  
Heating Degree Days 10 20  
Month to date heating degree days 184 240  
Since 1 July heating degree days 1060 1215  
Cooling Degree Days 0 0  
Month to date cooling degree days 0 0  
Year to date cooling degree days 0 0  
Growing Degree Days 6 (Base 50)    
Moisture  
Dew Point 42 °F    
Average Humidity 64    
Maximum Humidity 86    
Minimum Humidity 42    
Precipitation  
Precipitation 0.00 in 0.13 in 1.29 in (1975)
Month to date precipitation 0.29 1.48  
Year to date precipitation 0.29 1.48  
Sea Level Pressure  
Sea Level Pressure 29.73 in    
Wind  
Wind Speed 11 mph (SW)    
Max Wind Speed 29 mph    
Max Gust Speed 37 mph    
Visibility 10 miles    
Events      
T = Trace of Precipitation, MM = Missing Value Source: NWS Daily Summary

Daily Weather History Graph

Daily Weather History Graph

Search for Another Location

Airport or City:

Trip Planner

Search our weather history database for the weather conditions in past years. The results will help you decide how hot, cold, wet, or windy it might be!

Date:

Astronomy

Jan. 12, 2012 Rise Set
Actual Time 7:32 AM EST 5:40 PM EST
Civil Twilight 7:05 AM EST 6:07 PM EST
Nautical Twilight 6:34 AM EST 6:37 PM EST
Astronomical Twilight 6:04 AM EST 7:07 PM EST
Moon 9:29 PM EST (1/12) 9:27 AM EST (1/12)
Length of Visible Light 11h 01m
Length of Day
10h 07m
Waning Gibbous, 87% of the Moon is Illuminated
Jan 12
Waning Gibbous
Jan 16
Last Quarter
Jan 23
New
Jan 30
First Quarter
Feb 7
Full

Hourly Weather History & Observations

Time (EST) Temp. Windchill Dew Point Humidity Pressure Visibility Wind Dir Wind Speed Gust Speed Precip Events Conditions
12:53 AM 46.9 °F - 39.9 °F 77% 29.72 in 10.0 mi SSW 5.8 mph - N/A   Clear
1:53 AM 46.0 °F 44.8 °F 41.0 °F 83% 29.73 in 10.0 mi SW 3.5 mph - N/A   Mostly Cloudy
2:53 AM 46.0 °F 41.4 °F 41.0 °F 83% 29.73 in 10.0 mi SSW 9.2 mph - N/A   Clear
3:53 AM 45.0 °F 41.2 °F 39.9 °F 82% 29.73 in 10.0 mi WSW 6.9 mph - N/A   Partly Cloudy
4:25 AM 46.4 °F 41.5 °F 42.8 °F 87% 29.75 in 10.0 mi SW 10.4 mph - N/A   Overcast
4:53 AM 48.2 °F - 42.8 °F 82% 29.74 in 10.0 mi SW 5.8 mph - N/A   Overcast
5:53 AM 48.9 °F - 43.0 °F 80% 29.74 in 10.0 mi SSW 4.6 mph - N/A   Overcast
6:53 AM 48.2 °F - 44.6 °F 87% 29.76 in 10.0 mi Variable 6.9 mph - N/A   Overcast
7:53 AM 50.0 °F - 43.0 °F 77% 29.77 in 10.0 mi SSW 4.6 mph - N/A   Overcast
8:53 AM 51.1 °F - 44.1 °F 77% 29.79 in 10.0 mi SW 6.9 mph - N/A   Overcast
9:53 AM 53.6 °F - 44.6 °F 72% 29.80 in 10.0 mi WSW 6.9 mph - N/A   Overcast
10:53 AM 55.0 °F - 45.0 °F 69% 29.79 in 10.0 mi SW 11.5 mph - N/A   Overcast
11:53 AM 57.9 °F - 45.0 °F 62% 29.76 in 10.0 mi West 12.7 mph 19.6 mph N/A   Scattered Clouds
12:53 PM 62.1 °F - 44.1 °F 52% 29.71 in 10.0 mi SW 10.4 mph - N/A   Clear
1:53 PM 64.4 °F - 42.8 °F 45% 29.68 in 10.0 mi WSW 11.5 mph 20.7 mph N/A   Clear
2:53 PM 66.0 °F - 42.1 °F 42% 29.66 in 10.0 mi WSW 12.7 mph 25.3 mph N/A   Clear
3:53 PM 66.9 °F - 43.0 °F 42% 29.64 in 10.0 mi South 17.3 mph 21.9 mph N/A   Clear
4:53 PM 64.9 °F - 46.0 °F 50% 29.63 in 10.0 mi SSW 13.8 mph 21.9 mph N/A   Overcast
5:53 PM 64.0 °F - 46.0 °F 52% 29.62 in 10.0 mi South 10.4 mph - N/A   Overcast
6:53 PM 63.0 °F - 46.9 °F 56% 29.64 in 10.0 mi SW 15.0 mph 21.9 mph N/A   Overcast
7:53 PM 62.1 °F - 48.0 °F 60% 29.67 in 10.0 mi West 17.3 mph 27.6 mph N/A   Overcast
8:53 PM 57.2 °F - 41.0 °F 55% 29.70 in 10.0 mi West 20.7 mph 28.8 mph N/A   Partly Cloudy
9:53 PM 54.0 °F - 37.9 °F 55% 29.75 in 10.0 mi West 15.0 mph 26.5 mph N/A   Partly Cloudy
10:53 PM 46.9 °F - 30.0 °F 52% 29.82 in 10.0 mi WNW 21.9 mph 33.4 mph N/A   Clear
11:53 PM 42.1 °F 33.1 °F 26.1 °F 53% 29.88 in 10.0 mi WNW 20.7 mph 33.4 mph N/A   Clear